Terug naar catalogus

ONEWEB-0229

ActiefCommunicatiePO
NORAD 48779·PAYLOAD·🇬🇧 United Kingdom

Gelanceerd May 28, 2021 vanaf Vostochny Cosmodrome

Loading…

Volgende Passages (komende 24 uur)

TLE

VersSource: CelesTrak SupGP

Epoch: Sep 14, 2026, 17:52 UTC

1 48779C 21045N   26257.74493473  .00001767  00000+0  46997-2 0  2574
2 48779  87.8983 241.3377 0002141  84.9911 330.0663 13.15541728    16

Volg ONEWEB-0229 in realtime met AllMySat

Download on the App Store